This demonstration page uses our WeatherBlox Daily Observations layout. Learn more.

39.92423, -83.80882

Hourly Observations for June 10, 2016

Temp ( °F °C ) Dew Point ( °F °C ) Humidity (%) Winds ( mph kmh ) Pressure ( in mb ) Visibility ( mi km ) Precip ( " mm )
12:56 am 00:56 Cloudy 70 21.1 54 12.2 57 57 Calm 30.04 1017 10 16.0934 0 0
1:56 am 01:56 Cloudy 70 21.1 53 11.6 55 55 S 3 6 30.03 1017 10 16.0934 0 0
2:56 am 02:56 Mostly Cloudy 69 20.5 53 11.6 57 57 S 3 6 30.04 1017 10 16.0934 0 0
3:56 am 03:56 Mostly Clear 65 18.3 55 12.7 70 70 SSE 3 6 30.04 1017 10 16.0934 0 0
4:56 am 04:56 Clear 65 18.3 54 12.2 68 68 S 3 6 30.03 1017 10 16.0934 0 0
5:56 am 05:56 Clear 62 16.6 55 12.7 78 78 SSW 3 6 30.05 1018 10 16.0934 0 0
6:56 am 06:56 Sunny 64 17.7 55 12.7 73 73 S 5 7 30.06 1018 10 16.0934 0 0
7:56 am 07:56 Mostly Cloudy 67 19.4 57 13.8 70 70 WSW 7 11 30.09 1019 10 16.0934 0 0
8:56 am 08:56 Mostly Sunny 67 19.4 58 14.4 73 73 WSW 9 15 30.11 1020 10 16.0934 0 0
9:13 am 09:13 Mostly Cloudy with Light Rain 64 18 61 16 88 88 WSW 8 13 30.12 1020 6 9.65604 0.01 0.254
9:56 am 09:56 Cloudy with Light Rain 64 17.7 62 16.6 93 93 SSW 10 17 30.12 1020 6 9.65604 0.05 1.27
10:08 am 10:08 Mostly Cloudy with Light Rain 64 18 63 17 94 94 SSW 12 19 30.15 1021 5 8.0467 0.01 0.254
10:56 am 10:56 Mostly Cloudy with Light Rain 64 17.7 64 17.7 100 100 SSW 8 13 30.13 1020 3 4.82802 0.05 1.27
11:56 am 11:56 Mostly Sunny 68 20 68 20 100 100 SW 13 20 30.13 1020 10 16.0934 0.01 0.254
12:14 pm 12:14 Mostly Cloudy with Nearby Thunderstorms 66 19 66 19 100 100 SW 13 20 30.12 1020 2.5 4.02335 0.01 0.254
12:26 pm 12:26 Mostly Cloudy with Mist and Fog 66 19 66 19 100 100 SSW 15 24 30.12 1020 3 4.82802 0.03 0.762
12:40 pm 12:40 Cloudy with Light Rain 66 19 66 19 100 100 S 16 26 30.12 1020 2.5 4.02335 0.06 1.524
12:49 pm 12:49 Cloudy with Light Rain 66 19 66 19 100 100 S 9 15 30.12 1020 3 4.82802 0.07 1.778
12:56 pm 12:56 Cloudy 67 19.4 67 19.4 100 100 S 13 20 30.12 1020 10 16.0934 0.07 1.778
1:56 pm 13:56 Sunny 72 22.2 71 21.6 96 96 SSW 14 22 30.1 1019 10 16.0934 0.01 0.254
2:56 pm 14:56 Mostly Sunny 74 23.3 69 20.5 84 84 SSW 13 20 30.08 1019 10 16.0934 0 0
3:56 pm 15:56 Sunny 73 22.7 69 20.5 87 87 SW 9 15 30.07 1018 10 16.0934 0 0
4:56 pm 16:56 Sunny 78 25.5 70 21.1 77 77 WSW 12 19 30.06 1018 10 16.0934 0 0
5:56 pm 17:56 Sunny 79 26.1 70 21.1 74 74 SW 10 17 30.05 1018 10 16.0934 0 0
6:56 pm 18:56 Sunny 76 24.4 70 21.1 82 82 SSW 8 13 30.04 1017 10 16.0934 0 0
7:56 pm 19:56 Sunny 76 24.4 69 20.5 79 79 SSW 8 13 30.03 1017 10 16.0934 0 0
8:56 pm 20:56 Sunny 74 23.3 70 21.1 88 88 S 5 7 30.02 1017 10 16.0934 0 0
9:56 pm 21:56 Clear 73 22.7 68 20 85 85 S 5 7 30.02 1017 10 16.0934 0 0
10:56 pm 22:56 Clear 71 21.6 68 20 91 91 S 5 7 30.05 1018 10 16.0934 0 0
11:56 pm 23:56 Clear 72 22.2 68 20 87 87 S 7 11 30.04 1017 10 16.0934 0 0

Powered by AerisWeather